Flag for Vanuatu Weather past 2 weeks in Port Vila, Vanuatu

Now
75 °F

Sprinkles. Scattered clouds.


Feels Like: 77 °F
Forecast: 75 / 78 °F
Wind: 8 mph from Northeast

Location: Bauerfield Efate

Current Time: Jul 31, 2014 at 8:25:06 AM

Latest Report: Jul 31, 2014 at 7:00 AM


Visibility: N/A

Pressure: 30.07 "Hg

Humidity: 74%

Dew point: 66 °F

Location of Port VilaLocation

Historic Weather in Port Vila — Graph

°F

Port Vila temperature yesterday

Maximum temperature yesterday: 77 °F (at 3:00 PM)
Minimum temperature yesterday: 57 °F (at 1:00 AM)
Average temperature yesterday: 67 °F

Past Weeks' High & Low Weather Summary

 TemperatureHumidityPressure
High81 °F (Jul 29, 9:00 PM)100% (Jul 17, 12:00 AM)30.15 "Hg (Jul 17, 12:00 AM)
Low36 °F (Jul 25, 8:00 PM)47% (Jul 25, 3:00 PM)29.80 "Hg (Jul 30, 9:00 PM)
Average68 °F80%29.97 "Hg
* Reported Jul 16 7:00 AM — Jul 31 7:00 AM, Port Vila, Weather by CustomWeather, © 2014

Note: Actual official high and low records may vary slightly from our data, if they occured in-between our weather recording intervals... More about our weather records

Advertising

Port Vila weather history for previous 24 hours

 ConditionsComfort  
Time TempWeatherWind HumidityBarometerVisibility
7:00 AM
Jul 31
75 °FSprinkles. Scattered clouds.8 mph74%30.07 "HgN/A
6:00 AM72 °FPassing clouds.3 mph88%30.04 "HgN/A
5:00 AM68 °FPassing clouds.No wind100%30.04 "HgN/A
4:00 AM70 °FPassing clouds.No wind94%30.04 "HgN/A
3:00 AM68 °FPassing clouds.3 mph94%30.04 "HgN/A
1:00 AM66 °FPassing clouds.No wind94%30.07 "HgN/A
12:00 AM64 °FPassing clouds.No wind94%30.07 "HgN/A
11:00 PM
Jul 30
66 °FPassing clouds.No wind100%30.07 "HgN/A
10:00 PM68 °FPassing clouds.3 mph94%30.07 "HgN/A
9:00 PM70 °FSprinkles. Passing clouds.3 mph94%29.80 "HgN/A
8:00 PM70 °FPartly cloudy.3 mph94%30.07 "HgN/A
7:00 PM70 °FPartly cloudy.2 mph83%30.07 "HgN/A
6:00 PM73 °FPartly cloudy.2 mph83%30.04 "HgN/A
5:00 PM75 °FBroken clouds.5 mph74%30.04 "HgN/A
4:00 PM77 °FBroken clouds.10 mph69%30.01 "HgN/A
3:00 PM77 °FBroken clouds.12 mph69%30.01 "HgN/A
9:00 AM73 °FPartly sunny.6 mph83%30.09 "HgN/A
Weather by CustomWeather, © 2014

See weather overviewHow to use our weather pages